This is the latest recevied weather packets stored in our database for station/object KE8RXN. If no packets are shown the sender has not sent any weather packets the latest 10 day(s).
| Time | Temp. | Humidity | Pressure | Rain* | Wind** | Luminosity | Snow |
|---|---|---|---|---|---|---|---|
| 1777031807 | 18.89° C | 71% | 1009.2 hPa | 0 mm | - | 50 W/m² | - |
| 1777031502 | 18.89° C | 71% | 1009.1 hPa | 0 mm | - | 33 W/m² | - |
| 1777031197 | 18.89° C | 71% | 1009.3 hPa | 0 mm | - | 19 W/m² | - |
| 1777030893 | 18.33° C | 71% | 1009.2 hPa | 0 mm | - | 16 W/m² | - |
| 1777030589 | 18.33° C | 71% | 1009.2 hPa | 0 mm | - | 12 W/m² | - |
| 1777030289 | 18.33° C | 72% | 1009.2 hPa | 0 mm | - | 13 W/m² | - |
| 1777029986 | 18.33° C | 72% | 1009.2 hPa | 0 mm | - | 16 W/m² | - |
| 1777029682 | 17.78° C | 72% | 1009.1 hPa | 0 mm | - | 14 W/m² | - |
| 1777029381 | 17.78° C | 72% | 1008.9 hPa | 0 mm | - | 12 W/m² | - |
| 1777029076 | 17.78° C | 72% | 1009 hPa | 0 mm | - | 11 W/m² | - |
| 1777028776 | 17.78° C | 72% | 1009 hPa | 0 mm | - | 7 W/m² | - |
| 1777028476 | 18.33° C | 72% | 1009.1 hPa | 0 mm | - | 6 W/m² | - |
| 1777028172 | 18.33° C | 71% | 1009.1 hPa | 0 mm | - | 3 W/m² | - |
| 1777027867 | 18.33° C | 71% | 1009.1 hPa | 0 mm | - | 2 W/m² | - |
| 1777027563 | 18.33° C | 71% | 1009.1 hPa | 0 mm | - | 0 W/m² | - |
| 1777027260 | 18.33° C | 71% | 1009 hPa | 0 mm | - | 0 W/m² | - |
| 1777026956 | 18.33° C | 71% | 1009.2 hPa | 0 mm | - | 0 W/m² | - |
| 1777026653 | 18.33° C | 71% | 1009.1 hPa | 0 mm | - | 0 W/m² | - |
| 1777026348 | 18.33° C | 70% | 1009.1 hPa | 0 mm | - | 0 W/m² | - |
| 1777026045 | 18.33° C | 70% | 1009.3 hPa | 0 mm | - | 0 W/m² | - |
| 1777025742 | 18.33° C | 70% | 1009.3 hPa | 0 mm | - | 0 W/m² | - |
| 1777025437 | 18.89° C | 70% | 1009.4 hPa | 0 mm | - | 0 W/m² | - |
| 1777025132 | 18.89° C | 69% | 1009.4 hPa | 0 mm | - | 0 W/m² | - |
| 1777024827 | 18.33° C | 69% | 1009.3 hPa | 0 mm | - | 0 W/m² | - |
| 1777024524 | 18.89° C | 69% | 1009.4 hPa | 0 mm | - | 0 W/m² | - |
* Rain latest hour (hover to see other rain measurements)
** Current wind speed in m/s (hover to see current wind gust speed)